Location: Famechon
(49.7599°N, 2.0615°E)
Time: 12:23:52
(UTC+00:00)

Cosmos 1709 Rocket - Pass Details

Date: 03 February 2023
Orbit: 947 x 1002 km, 82.9° (Epoch: 21 March)

Event Time Altitude Azimuth Distance (km) Brightness Sun altitude
Rises 19:31:32 0° 349° (N) 3,661 7.2 -26.3°
Reaches altitude 10° 19:34:03 10° 349° (N) 2,704 6.5 -26.7°
Maximum altitude 19:40:14 84° 263° (W) 965 3.9 -27.7°
Enters shadow 19:43:14 32° 178° (S) 1,558 4.9 -28.2°
